Location: Newark
(50.0306°N, 2.3272°E)
Time: 04:49:51
(UTC+00:00)

SR - Visible Passes

Search period start: 15 December 2019 00:00
Search period end: 25 December 2019 00:00
Orbit: 573 x 882 km, 66.7° (Epoch: 13 December)

Date Brightness Start Highest point End Pass type
(mag) Time Alt. Az. Time Alt. Az. Time Alt. Az.
15 Dec ? 17:56:20 10° WNW 18:00:55 24° WSW 18:05:18 10° SSW visible
16 Dec ? 06:48:56 10° SSE 06:52:55 20° ESE 06:57:04 10° ENE visible
16 Dec ? 17:06:07 10° NW 17:11:36 42° WSW 17:16:47 10° S visible
17 Dec ? 06:02:42 10° ESE 06:03:51 11° E 06:05:00 10° E visible
17 Dec ? 18:00:19 10° WNW 18:03:10 14° WSW 18:05:56 10° SW visible
18 Dec ? 06:50:18 10° S 06:55:16 34° ESE 07:00:30 10° NE visible
18 Dec ? 17:09:21 10° NW 17:14:01 25° WSW 17:18:28 10° SSW visible
19 Dec ? 06:02:09 10° SSE 06:06:02 19° ESE 06:10:03 10° ENE visible
19 Dec ? 16:19:09 10° NW 16:24:41 44° WSW 16:29:54 10° S visible
20 Dec ? 06:52:17 10° SSW 06:57:47 55° ESE 07:03:34 10° NE visible
20 Dec ? 17:13:13 10° WNW 17:16:16 15° WSW 17:19:14 10° SW visible
21 Dec ? 06:03:26 10° S 06:08:22 32° ESE 06:13:31 10° NE visible
21 Dec ? 16:22:21 10° NW 16:27:07 27° WSW 16:31:38 10° SSW visible
22 Dec ? 05:15:23 10° SSE 05:19:08 18° ESE 05:23:01 10° ENE visible
22 Dec ? 06:54:45 10° SSW 07:00:27 87° SE 07:06:26 10° NE visible
23 Dec ? 06:05:23 10° SSW 06:10:51 53° ESE 06:16:37 10° NE visible
23 Dec ? 16:26:09 10° WNW 16:29:23 16° WSW 16:32:31 10° SW visible
24 Dec ? 05:16:35 10° S 05:21:28 31° ESE 05:26:33 10° NE visible
24 Dec ? 06:57:35 10° SW 07:03:16 62° NW 07:09:12 10° NNE visible
